Вернуться в каталог

STARLINK-11539

АктивенСвязьVLEO
NORAD 62987·PAYLOAD·🇺🇸 United States

Запущен Feb 11, 2025 с Cape Canaveral Space Force Station

Loading…

Ближайшие Пролёты (ближайшие 24 часа)

TLE

СвежийSource: CelesTrak SupGP

Эпоха: Sep 14, 2026, 14:43 UTC

1 62987C 25031G   26257.61368056  .00104030  00000+0  80848-3 0  2575
2 62987  43.0003 302.6401 0001525 267.6880 169.8886 15.70773966    18

Отслеживайте STARLINK-11539 в реальном времени с AllMySat

Download on the App Store